CW2989 Weather Reports


time (UTC)temp
F
wind
direction
speed
knots
gust
knots
rain 1hr
in
rain 24hr
in
rain mn
in
humidity
%
barometer
mb
20260506232149 60 267 1.7 7.0 0.00 0.00 0.00 88 995.5
20260506231154 60 272 1.7 7.0 0.00 0.00 0.00 88 995.4
20260506225049 60 230 1.7 6.1 0.00 0.00 0.00 88 995.4
20260506224053 60 238 1.7 7.0 0.00 0.00 0.00 89 995.4
20260506223053 60 228 1.7 7.0 0.00 0.00 0.00 88 995.4
20260506222020 59 197 2.6 7.0 0.00 0.00 0.00 89 995.0
20260506215825 59 219 1.7 7.8 0.00 0.00 0.00 89 995.3
20260506214838 59 174 1.7 9.6 0.00 0.00 0.00 89 995.3
20260506213842 59 240 2.6 9.6 0.00 0.00 0.00 89 995.4
20260506212822 59 215 0.9 7.8 0.00 0.00 0.00 90 995.4
20260506211802 59 263 1.7 7.8 0.00 0.00 0.00 89 995.4
20260506210819 59 211 2.6 7.8 0.00 0.00 0.00 89 995.5
20260506205805 59 214 2.6 13.0 0.00 0.00 0.00 89 995.8
20260506204756 59 189 2.6 13.0 0.00 0.00 0.00 89 995.8
20260506202640 59 230 1.7 9.6 0.00 0.00 0.00 89 995.8
20260506201627 59 246 2.6 9.6 0.00 0.00 0.00 88 995.8
20260506200607 59 250 2.6 11.3 0.00 0.00 0.00 89 995.7
20260506195608 59 271 2.6 11.3 0.00 0.00 0.00 88 995.5
20260506194546 60 222 2.6 10.4 0.00 0.00 0.00 88 995.5
20260506193548 60 213 2.6 10.4 0.00 0.00 0.00 88 995.3
20260506192523 60 216 2.6 9.6 0.00 0.00 0.00 88 995.5
20260506191522 61 248 2.6 10.4 0.00 0.00 0.00 88 995.5
20260506190511 61 215 3.5 10.4 0.00 0.00 0.00 89 995.7
20260506185524 61 200 3.5 9.6 0.00 0.00 0.00 88 995.4
20260506184519 62 254 2.6 10.4 0.00 0.00 0.00 89 995.4
20260506183529 62 227 2.6 10.4 0.00 0.00 0.00 89 995.3
20260506182532 63 197 2.6 11.3 0.00 0.00 0.00 88 995.2
20260506181552 65 201 3.5 11.3 0.00 0.00 0.00 86 995.2
20260506180610 68 197 2.6 7.8 0.00 0.00 0.00 84 995.1
20260506175633 69 198 2.6 7.0 0.00 0.00 0.00 85 994.7
20260506174648 69 175 1.7 5.2 0.00 0.00 0.00 83 994.7
20260506173707 69 323 1.7 5.2 0.00 0.00 0.00 85 994.6
20260506172712 68 252 0.9 4.3 0.00 0.00 0.00 88 994.2
20260506171726 67 304 0.9 4.3 0.00 0.00 0.00 89 994.2
20260506170717 65 278 0.9 5.2 0.00 0.00 0.00 92 994.3
20260506165739 64 288 1.7 7.8 0.00 0.00 0.00 92 994.2
20260506164741 63 217 1.7 7.8 0.00 0.00 0.00 93 994.2
20260506163721 62 51 0.9 5.2 0.00 0.00 0.00 96 994.7
20260506162742 61 281 0.9 4.3 0.00 0.00 0.00 96 995.7
20260506161734 59 271 0.0 4.3 0.00 0.00 0.00 96 995.7
20260506160744 58 174 1.7 7.0 0.00 0.00 0.00 95 995.3
20260506153446 60 340 2.6 8.7 0.00 0.00 0.00 94 996.0
20260506152434 61 234 2.6 11.3 0.00 0.00 0.00 94 995.6
20260506151458 62 171 3.5 11.3 0.00 0.00 0.00 94 995.6
20260506150431 63 171 2.6 8.7 0.00 0.00 0.00 95 995.2
20260506145429 63 284 3.5 9.6 0.00 0.00 0.00 95 994.3
20260506144409 63 300 3.5 13.0 0.00 0.00 0.00 94 994.3
20260506143433 64 264 4.3 13.0 0.00 0.00 0.00 94 994.0
20260506140211 66 254 2.6 7.0 0.00 0.00 0.00 94 993.0
20260506135154 68 261 2.6 9.6 0.00 0.00 0.00 94 992.9
20260506133108 73 282 0.0 1.7 0.00 0.00 0.00 97 992.4
20260506132053 73 281 0.0 1.7 0.00 0.00 0.00 97 992.4
20260506125959 73 292 0.0 0.9 0.00 0.00 0.00 97 991.9
20260506125009 73 293 0.0 0.9 0.00 0.00 0.00 96 991.9
20260506123938 73 293 0.0 0.0 0.00 0.00 0.00 96 991.9
20260506122925 73 24 0.0 0.0 0.00 0.00 0.00 96 991.9
20260506120752 73 24 0.0 0.0 0.00 0.00 0.00 95 991.3
20260506115805 73 24 0.0 1.7 0.00 0.00 0.00 95 991.3
20260506114802 73 24 0.0 0.9 0.00 0.00 0.00 95 991.3
20260506113750 73 24 0.0 0.0 0.00 0.00 0.00 95 991.3
20260506112750 73 22 0.0 3.5 0.00 0.00 0.00 95 991.7
20260506111748 74 40 0.0 0.9 0.00 0.00 0.00 95 991.7
20260506103313 74 40 0.0 0.0 0.00 0.00 0.00 95 991.5
20260506102314 74 40 0.0 0.0 0.00 0.00 0.00 94 991.3
20260506101318 74 41 0.0 0.0 0.00 0.00 0.00 94 991.1
20260506100245 74 41 0.0 0.0 0.00 0.00 0.00 94 991.1
20260506094127 74 40 0.0 1.7 0.00 0.00 0.00 93 990.8
20260506093117 74 40 0.0 1.7 0.00 0.00 0.00 93 990.8
20260506092053 74 39 0.9 2.6 0.00 0.00 0.00 93 990.7
20260506091110 74 39 0.9 2.6 0.00 0.00 0.00 93 990.4
20260506090116 74 37 0.9 6.1 0.00 0.00 0.00 93 990.4
20260506085054 74 42 0.9 6.1 0.00 0.00 0.00 93 990.3
20260506084025 74 30 0.9 4.3 0.00 0.00 0.00 93 990.4
20260506082958 74 30 0.9 5.2 0.00 0.00 0.00 93 990.4
20260506082006 74 48 0.9 7.0 0.00 0.00 0.00 92 990.3
20260506072817 74 84 0.9 7.8 0.00 0.00 0.00 92 990.8
20260506071800 75 20 1.7 7.8 0.00 0.00 0.00 92 990.8
20260506070821 75 38 1.7 7.8 0.00 0.00 0.00 92 990.8
20260506061816 75 65 1.7 9.6 0.00 0.00 0.00 92 990.4
20260506060822 75 59 1.7 9.6 0.00 0.00 0.00 92 990.3
20260506050614 75 32 1.7 8.7 0.00 0.00 0.00 92 990.8
20260506044624 75 40 1.7 7.0 0.00 0.00 0.00 92 990.4
20260506043607 75 40 0.9 7.8 0.00 0.00 0.00 91 990.7
20260506041450 75 34 0.9 5.2 0.00 0.00 0.00 90 990.3
20260506040447 76 29 1.7 4.3 0.00 0.00 0.00 90 990.3
20260506035424 76 37 0.9 4.3 0.00 0.00 0.00 90 990.3
20260506032142 76 35 0.9 3.5 0.00 0.00 0.00 89 990.0
20260506031158 76 44 0.9 2.6 0.00 0.00 0.00 88 989.8
20260506030204 76 36 0.0 1.7 0.00 0.00 0.00 88 989.8
20260506024007 77 37 0.0 0.0 0.00 0.00 0.00 86 989.2
20260506023005 77 38 0.0 0.9 0.00 0.00 0.00 86 989.2
20260506021933 77 38 0.0 1.7 0.00 0.00 0.00 85 989.0
20260506015730 78 36 0.0 1.7 0.00 0.00 0.00 84 988.7
20260506014706 78 37 0.9 5.2 0.00 0.00 0.00 83 988.7
20260506013704 78 31 0.9 5.2 0.00 0.00 0.00 83 988.4
20260506012708 79 27 0.9 4.3 0.00 0.00 0.00 82 988.5
20260506011716 79 26 0.9 3.5 0.00 0.00 0.00 81 988.5
20260506010741 79 27 0.9 5.2 0.00 0.00 0.00 81 988.3
20260506005752 80 34 0.9 5.2 0.00 0.00 0.00 80 988.3
20260506004753 80 34 1.7 4.3 0.00 0.00 0.00 79 988.3
20260506003723 81 17 1.7 4.3 0.00 0.00 0.00 79 988.5
20260506002741 81 51 1.7 5.2 0.00 0.00 0.00 78 988.5
20260506001731 81 22 1.7 7.8 0.00 0.00 0.00 78 988.5
20260506000709 81 47 1.7 7.8 0.00 0.00 0.00 79 988.4
20260505235715 81 30 1.7 5.2 0.00 0.00 0.00 78 988.5
20260505234648 82 46 1.7 7.0 0.00 0.00 0.00 77 988.5
20260505233640 82 28 1.7 7.0 0.00 0.00 0.00 77 988.2